Date,TemperatureHighF,TemperatureAvgF,TemperatureLowF,DewpointHighF,DewpointAvgF,DewpointLowF,HumidityHigh,HumidityAvg,HumidityLow,PressureMaxIn,PressureMinIn,WindSpeedMaxMPH,WindSpeedAvgMPH,GustSpeedMaxMPH,PrecipitationSumIn
2013-1-1,37.0,34.6,27.0,35.0,31.8,22.0,94,90,78,30.26,30.04,2,0,0,0.00
2013-1-2,35.0,24.8,16.0,27.0,21.0,13.0,92,85,67,30.31,30.21,2,0,0,0.00
2013-1-3,43.0,26.2,15.0,30.0,21.0,12.0,92,82,52,30.44,30.27,4,0,0,0.00
2013-1-4,46.0,28.2,17.0,29.0,21.5,14.0,92,78,41,30.50,30.35,2,0,0,0.00
2013-1-5,49.0,34.6,24.0,33.0,27.6,21.0,91,77,50,30.35,30.17,5,1,0,0.00
2013-1-6,46.0,31.4,22.0,29.0,24.0,18.0,94,76,46,30.39,30.21,8,2,0,0.00
2013-1-7,52.0,29.5,15.0,30.0,21.2,12.0,91,74,37,30.42,30.17,4,0,0,0.00
2013-1-8,57.0,39.5,22.0,42.0,30.9,19.0,93,73,49,30.22,30.07,3,0,0,0.00
2013-1-9,58.0,49.3,44.0,47.0,44.1,42.0,95,84,60,30.36,30.20,3,0,0,0.00
2013-1-10,51.0,47.8,44.0,50.0,45.7,41.0,95,92,73,30.29,29.80,2,0,0,0.00
2013-1-11,65.0,49.1,34.0,51.0,43.0,33.0,96,81,54,29.91,29.78,3,1,0,0.00
2013-1-12,59.0,49.0,34.0,52.0,45.2,31.0,94,88,71,29.90,29.72,5,1,0,0.00
2013-1-13,35.0,30.1,20.0,33.0,24.6,16.0,92,80,63,30.37,29.88,7,2,0,0.00
2013-1-14,31.0,21.1,13.0,18.0,14.5,10.0,91,77,46,30.51,30.36,5,1,0,0.00
2013-1-15,28.0,22.4,15.0,24.0,18.1,12.0,89,84,73,30.39,30.16,2,0,0,0.00
2013-1-16,45.0,26.3,13.0,28.0,19.1,10.0,92,76,42,30.24,30.09,3,0,0,0.00
2013-1-17,46.0,31.5,21.0,35.0,25.3,19.0,92,79,52,30.50,30.18,7,2,0,0.00
2013-1-18,59.0,36.9,19.0,33.0,25.4,17.0,92,68,28,30.54,30.22,3,0,0,0.00
2013-1-19,66.0,44.8,26.0,38.0,31.1,23.0,91,62,35,30.22,30.03,7,1,0,0.00
2013-1-20,56.0,37.5,25.0,36.0,27.8,23.0,94,73,35,30.30,30.12,2,0,0,0.00
2013-1-21,40.0,30.2,22.0,28.0,16.6,13.0,88,58,38,30.40,30.23,6,1,0,0.00
2013-1-22,37.0,26.2,16.0,20.0,16.1,12.0,88,67,45,30.42,30.29,4,1,0,0.00
2013-1-23,60.0,34.3,18.0,42.0,26.3,15.0,91,74,46,30.33,30.11,1,0,0,0.00
2013-1-24,39.0,33.0,29.0,32.0,18.7,13.0,93,57,43,30.43,30.20,6,3,0,0.00
2013-1-25,47.0,35.1,29.0,35.0,27.1,19.0,86,73,58,30.25,30.14,4,1,0,0.00
2013-1-26,56.0,40.6,26.0,34.0,27.8,24.0,93,65,34,30.32,30.19,4,1,0,0.00
2013-1-27,59.0,48.5,44.0,54.0,42.0,32.0,92,79,57,30.22,29.96,3,1,0,0.00
2013-1-28,75.0,67.8,57.0,62.0,59.5,54.0,89,75,59,29.97,29.85,7,2,0,0.00
2013-1-29,68.0,63.4,53.0,62.0,58.7,51.0,95,85,76,29.85,29.40,8,1,0,0.00
2013-1-30,53.0,39.8,30.0,52.0,32.8,21.0,95,76,62,30.03,29.43,12,5,0,0.00
2013-1-31,53.0,36.8,20.0,30.0,22.4,7.0,90,58,39,30.42,30.03,8,4,0,0.00
2013-2-1,39.0,25.5,12.0,17.0,9.2,4.0,78,51,31,30.54,30.26,5,1,0,0.00
2013-2-2,55.0,35.4,21.0,33.0,24.0,16.0,87,65,42,30.28,30.14,8,2,0,0.00
2013-2-3,55.0,40.1,27.0,32.0,26.4,23.0,91,63,31,30.25,30.02,8,2,0,0.00
2013-2-4,56.0,44.9,31.0,46.0,36.2,26.0,93,73,44,30.02,29.81,4,0,0,0.00
2013-2-5,66.0,42.0,29.0,45.0,34.2,27.0,95,79,32,30.07,29.91,4,0,0,0.00
2013-2-6,56.0,42.4,27.0,40.0,33.4,25.0,94,73,49,30.20,30.01,5,1,0,0.00
2013-2-7,64.0,50.2,37.0,55.0,45.6,35.0,94,85,66,30.01,29.81,3,0,0,0.00
2013-2-8,51.0,42.4,34.0,44.0,34.0,30.0,87,73,50,30.30,30.01,4,1,0,0.00
2013-2-9,41.0,36.7,32.0,35.0,31.1,28.0,87,80,69,30.30,29.96,5,2,0,0.00
2013-2-10,68.0,50.3,37.0,56.0,40.0,30.0,95,73,28,29.97,29.61,10,2,0,0.00
2013-2-11,55.0,42.5,29.0,32.0,27.8,24.0,86,59,35,30.17,29.98,8,2,0,0.00
2013-2-12,48.0,36.2,24.0,36.0,28.8,22.0,92,76,49,30.15,29.88,4,0,0,0.00
2013-2-13,53.0,40.4,30.0,38.0,33.6,27.0,93,79,45,30.00,29.89,7,2,0,0.00
2013-2-14,60.0,42.1,26.0,38.0,31.4,24.0,94,71,37,30.10,29.93,5,1,0,0.00
2013-2-15,45.0,39.3,25.0,35.0,25.1,14.0,82,58,33,30.29,30.09,7,2,0,0.00
2013-2-16,41.0,31.4,20.0,24.0,18.6,14.0,83,61,34,30.33,30.17,5,1,0,0.00
2013-2-17,62.0,44.2,28.0,34.0,26.9,21.0,81,54,30,30.17,29.88,4,1,0,0.00
2013-2-18,57.0,51.1,39.0,51.0,41.7,30.0,91,70,52,30.03,29.60,9,3,0,0.00
2013-2-19,47.0,36.0,23.0,30.0,20.8,14.0,83,57,28,30.30,30.02,9,4,0,0.00
2013-2-20,35.0,29.1,22.0,21.0,15.2,13.0,87,58,40,30.36,30.18,5,1,0,0.00
2013-2-21,32.0,30.5,29.0,30.0,26.3,15.0,93,85,50,30.19,29.78,8,2,0,0.00
2013-2-22,38.0,31.4,25.0,32.0,26.5,22.0,100,83,62,30.11,29.83,5,1,0,0.00
2013-2-23,44.0,29.2,18.0,29.0,22.4,15.0,91,77,47,30.12,29.96,5,0,0,0.00
2013-2-24,55.0,37.1,20.0,34.0,27.4,18.0,92,71,43,30.09,29.91,6,2,0,0.00
2013-2-25,55.0,40.0,27.0,40.0,32.9,25.0,93,78,43,29.92,29.35,14,2,0,0.00
2013-2-26,41.0,37.7,35.0,40.0,33.3,30.0,95,84,75,29.83,29.30,9,4,0,0.00
2013-2-27,43.0,38.3,36.0,31.0,28.8,26.0,77,69,58,30.01,29.77,9,5,0,0.00
2013-2-28,41.0,35.8,31.0,28.0,25.8,23.0,78,67,57,30.17,30.00,8,3,0,0.00
2013-3-1,35.0,32.9,30.0,27.0,24.0,22.0,78,70,64,30.22,30.13,6,3,0,0.00
2013-3-2,38.0,30.4,21.0,25.0,20.5,16.0,86,67,46,30.31,30.21,8,2,0,0.00
2013-3-3,54.0,35.6,17.0,28.0,21.9,14.0,90,62,33,30.25,29.92,5,2,0,0.00
2013-3-4,57.0,46.7,39.0,47.0,37.7,28.0,91,71,64,29.92,29.65,6,2,0,0.00
2013-3-5,46.0,41.7,35.0,41.0,28.7,21.0,93,62,38,30.25,29.73,14,7,0,0.00
2013-3-6,48.0,36.1,29.0,28.0,22.2,19.0,79,58,37,30.40,30.25,7,2,0,0.00
2013-3-7,59.0,43.6,30.0,34.0,29.9,25.0,85,62,33,30.35,30.19,4,1,0,0.00
2013-3-8,60.0,44.8,28.0,38.0,32.5,25.0,92,65,41,30.35,30.13,6,2,0,0.00
2013-3-9,72.0,59.8,47.0,54.0,42.8,34.0,73,55,28,30.12,29.71,7,2,0,0.00
2013-3-10,64.0,52.6,40.0,56.0,47.5,33.0,94,84,63,29.87,29.62,13,3,0,0.00
2013-3-11,47.0,36.8,29.0,33.0,27.7,24.0,86,70,46,30.04,29.85,8,5,0,0.00
2013-3-12,58.0,40.1,24.0,32.0,26.1,22.0,92,63,31,30.28,30.03,10,2,0,0.00
2013-3-13,53.0,39.1,26.0,29.0,23.7,21.0,85,57,29,30.45,30.28,7,2,0,0.00
2013-3-14,73.0,46.3,24.0,40.0,30.8,21.0,92,61,29,30.40,30.07,8,1,0,0.00
2013-3-15,83.0,59.0,36.0,50.0,41.9,33.0,93,60,26,30.09,29.75,10,2,0,0.00
2013-3-16,77.0,61.1,48.0,51.0,46.2,39.0,87,61,38,29.87,29.70,10,1,0,0.00
2013-3-17,53.0,43.7,40.0,40.0,38.1,36.0,93,81,59,29.95,29.68,7,2,0,0.00
2013-3-18,54.0,45.0,34.0,43.0,39.0,30.0,94,81,49,30.03,29.68,8,2,0,0.00
2013-3-19,55.0,41.3,28.0,35.0,26.2,19.0,94,62,24,30.23,30.03,5,1,0,0.00
2013-3-20,49.0,38.1,26.0,33.0,22.8,14.0,90,58,27,30.32,30.13,12,3,0,0.00
2013-3-21,44.0,32.5,25.0,32.0,21.2,12.0,96,67,32,30.14,29.91,4,2,0,0.00
2013-3-22,36.0,33.7,31.0,34.0,31.7,29.0,94,93,92,29.97,29.89,3,1,0,0.00
2013-3-23,43.0,38.2,34.0,40.0,35.4,32.0,95,90,84,29.97,29.70,2,0,0,0.00
2013-3-24,42.0,38.4,32.0,40.0,32.1,21.0,94,79,63,30.04,29.59,14,6,0,0.00
2013-3-25,37.0,32.3,27.0,24.0,20.7,16.0,69,62,53,30.30,30.02,11,6,0,0.00
2013-3-26,46.0,35.0,27.0,27.0,23.5,22.0,85,64,40,30.40,30.30,6,2,0,0.00
2013-3-27,60.0,40.0,20.0,33.0,25.3,17.0,90,61,29,30.39,30.19,4,1,0,0.00
2013-3-28,70.0,55.4,44.0,46.0,38.8,33.0,75,55,38,30.27,30.09,3,1,0,0.00
2013-3-29,67.0,54.9,45.0,52.0,47.4,41.0,93,77,53,30.19,30.08,3,0,0,0.00
2013-3-30,69.0,56.7,51.0,55.0,49.1,-99.9,91,79,60,30.13,29.83,6,1,0,0.00
2013-3-31,69.0,55.2,44.0,52.0,47.4,39.0,95,78,36,29.95,29.81,4,0,0,0.00
2013-4-1,64.0,49.1,35.0,47.0,38.9,33.0,94,72,41,30.16,29.92,5,1,0,0.00
2013-4-2,47.0,40.8,37.0,41.0,32.5,28.0,88,73,52,30.29,30.15,3,1,0,0.00
2013-4-3,53.0,43.3,32.0,35.0,29.2,24.0,94,62,33,30.29,30.15,8,1,0,0.00
2013-4-4,57.0,47.9,42.0,38.0,32.4,29.0,73,56,34,30.18,30.00,4,1,0,0.00
2013-4-5,74.0,50.3,29.0,43.0,34.4,26.0,90,60,27,30.18,29.99,2,0,0,0.00
2013-4-6,76.0,59.9,43.0,48.0,42.7,36.0,83,56,33,30.02,29.77,6,1,0,0.00
2013-4-7,79.0,65.9,50.0,56.0,52.1,45.0,84,63,42,29.89,29.76,6,1,0,0.00
2013-4-8,76.0,67.4,58.0,60.0,57.0,53.0,85,70,56,29.80,29.72,7,1,0,0.00
2013-4-9,82.0,73.4,66.0,64.0,59.9,56.0,73,63,45,29.81,29.70,7,2,0,0.00
2013-4-10,84.0,70.3,44.0,67.0,59.9,40.0,93,71,52,29.79,29.54,14,3,0,0.00
2013-4-11,55.0,44.1,37.0,40.0,35.0,31.0,88,72,44,29.81,29.67,8,4,0,0.00
2013-4-12,63.0,45.3,30.0,38.0,32.9,28.0,93,66,35,30.01,29.79,9,2,0,0.00
2013-4-13,70.0,53.2,37.0,47.0,39.4,34.0,90,63,38,30.06,29.82,4,0,0,0.00
2013-4-14,79.0,61.1,42.0,58.0,48.9,40.0,94,68,34,29.85,29.53,7,2,0,0.00
2013-4-15,77.0,66.8,56.0,64.0,59.2,53.0,93,78,61,29.79,29.68,6,1,0,0.00
2013-4-16,87.0,69.1,54.0,67.0,59.9,52.0,95,76,45,29.92,29.77,4,0,0,0.00
2013-4-17,85.0,75.8,61.0,69.0,65.3,58.0,90,71,51,29.92,29.63,7,1,0,0.00
2013-4-18,78.0,61.0,43.0,67.0,53.2,32.0,92,76,64,29.89,29.52,9,4,0,0.00
2013-4-19,57.0,45.5,36.0,34.0,28.7,25.0,84,54,31,30.10,29.89,11,6,0,0.00
2013-4-20,67.0,49.3,30.0,45.0,35.2,28.0,93,64,32,30.22,30.10,2,0,0,0.00
2013-4-21,68.0,56.3,42.0,45.0,41.0,38.0,91,60,33,30.30,30.13,7,2,0,0.00
2013-4-22,73.0,55.5,35.0,46.0,40.6,33.0,93,63,30,30.21,29.91,5,1,0,0.00
2013-4-23,75.0,57.8,41.0,57.0,48.7,39.0,92,74,48,30.04,29.78,6,2,0,0.00
2013-4-24,58.0,45.0,36.0,39.0,34.9,30.0,93,71,35,30.28,30.03,6,2,0,0.00
2013-4-25,71.0,50.2,30.0,46.0,35.5,28.0,95,65,25,30.37,30.21,2,0,0,0.00
2013-4-26,54.0,49.9,45.0,49.0,46.1,41.0,94,87,66,30.37,30.17,5,1,0,0.00
2013-4-27,57.0,52.3,48.0,54.0,50.1,46.0,94,92,90,30.19,29.93,5,0,0,0.00
2013-4-28,72.0,57.6,51.0,56.0,50.6,48.0,93,79,49,30.00,29.86,3,0,0,0.00
2013-4-29,83.0,63.2,44.0,64.0,54.0,42.0,95,75,46,29.93,29.73,4,0,0,0.00
2013-4-30,84.0,68.5,52.0,61.0,53.7,47.0,95,65,29,29.85,29.78,6,1,0,0.00
2013-5-1,80.0,64.0,50.0,69.0,58.0,48.0,94,82,56,30.03,29.85,7,1,0,0.00
2013-5-2,62.0,54.4,43.0,61.0,52.5,40.0,96,93,90,30.14,29.99,3,1,0,0.00
2013-5-3,42.0,38.3,37.0,40.0,36.0,34.0,93,91,88,30.13,29.92,6,3,0,0.00
2013-5-4,49.0,42.0,36.0,41.0,37.5,34.0,94,85,62,29.97,29.87,3,0,0,0.00
2013-5-5,57.0,47.8,33.0,50.0,42.2,31.0,95,82,65,30.02,29.92,7,2,0,0.00
2013-5-6,70.0,60.2,54.0,57.0,52.3,49.0,88,76,57,29.99,29.91,6,2,0,0.00
2013-5-7,81.0,63.2,47.0,59.0,53.0,45.0,94,73,37,30.02,29.91,1,0,0,0.00
2013-5-8,82.0,65.8,48.0,61.0,54.1,46.0,95,71,39,30.02,29.89,4,0,0,0.00
2013-5-9,85.0,68.6,57.0,62.0,57.3,51.0,94,72,31,29.94,29.82,4,0,0,0.00
2013-5-10,75.0,64.0,56.0,62.0,56.2,-99.9,95,81,57,29.99,29.83,5,0,0,0.00
2013-5-11,76.0,60.4,46.0,55.0,47.2,-99.9,95,68,32,30.14,29.98,4,1,0,0.00
2013-5-12,71.0,53.4,36.0,47.0,38.4,33.0,92,63,28,30.26,30.10,3,0,0,0.00
2013-5-13,83.0,61.8,43.0,58.0,48.0,41.0,93,66,33,30.20,30.00,5,1,0,0.00
2013-5-14,92.0,70.4,48.0,60.0,53.5,46.0,94,63,28,30.01,29.89,6,1,0,0.00
2013-5-15,84.0,69.1,52.0,68.0,60.5,49.0,94,76,55,29.98,29.85,3,0,0,0.00
2013-5-16,65.0,59.0,60.0,62.0,41.4,-99.9,95,93,86,29.90,29.81,3,0,0,0.00
2013-5-17,82.0,67.8,59.0,67.0,57.7,-99.9,96,83,52,29.89,29.81,1,0,0,0.00
2013-5-18,82.0,70.1,58.0,74.0,66.0,56.0,96,87,73,29.93,29.80,3,0,0,0.00
2013-5-19,86.0,75.1,62.0,72.0,66.5,60.0,96,77,53,29.82,29.67,5,1,0,0.00
2013-5-20,80.0,75.2,64.0,72.0,68.3,61.0,91,79,67,29.84,29.66,6,0,0,0.00
2013-5-21,68.0,63.7,60.0,65.0,60.9,58.0,95,91,81,29.87,29.61,7,1,0,0.00
2013-5-22,80.0,67.3,54.0,62.0,58.0,52.0,95,75,47,29.88,29.71,6,1,0,0.00
2013-5-23,79.0,66.0,51.0,63.0,57.2,49.0,95,75,52,30.12,29.88,3,1,0,0.00
2013-5-24,74.0,61.8,51.0,55.0,49.5,45.0,94,68,37,30.29,30.13,5,1,0,0.00
2013-5-25,81.0,64.6,47.0,64.0,54.5,45.0,96,72,51,30.25,30.05,4,1,0,0.00
2013-5-26,86.0,71.9,56.0,70.0,63.0,54.0,93,75,56,30.10,29.96,2,0,0,0.00
2013-5-27,84.0,73.8,61.0,68.0,64.2,59.0,93,73,53,29.98,29.80,3,0,0,0.00
2013-5-28,85.0,77.3,72.0,68.0,65.5,64.0,78,67,54,29.87,29.75,4,1,0,0.00
2013-5-29,84.0,75.9,65.0,68.0,65.1,61.0,90,70,55,29.89,29.74,4,1,0,0.00
2013-5-30,82.0,74.7,65.0,71.0,67.5,62.0,93,79,65,29.89,29.72,6,1,0,0.00
2013-5-31,86.0,75.3,66.0,74.0,69.6,63.0,93,83,67,29.83,29.64,8,1,0,0.00
2013-6-1,77.0,69.5,65.0,74.0,64.9,-99.9,95,89,75,29.90,29.67,8,1,0,0.00
2013-6-2,72.0,63.8,53.0,62.0,57.0,52.0,95,80,61,29.98,29.89,5,1,0,0.00
2013-6-3,78.0,65.8,55.0,62.0,57.0,53.0,94,75,48,30.03,29.88,2,0,0,0.00
2013-6-4,80.0,66.1,52.0,67.0,58.8,50.0,95,79,52,29.98,29.87,4,0,0,0.00
2013-6-5,85.0,69.5,57.0,71.0,62.8,55.0,95,81,55,29.93,29.76,3,0,0,0.00
2013-6-6,79.0,69.6,62.0,64.0,61.3,58.0,93,76,53,29.86,29.79,3,0,0,0.00
2013-6-7,78.0,65.5,53.0,61.0,56.4,51.0,94,75,43,29.91,29.83,3,0,0,0.00
2013-6-8,84.0,67.6,51.0,64.0,57.2,49.0,94,73,41,29.92,29.82,2,0,0,0.00
2013-6-9,80.0,67.1,57.0,71.0,62.9,55.0,94,87,67,29.89,29.77,7,0,0,0.00
2013-6-10,94.0,75.2,57.0,72.0,64.6,56.0,96,74,40,29.85,29.78,5,1,0,0.00
2013-6-11,97.0,79.9,61.0,77.0,68.0,59.0,95,71,38,29.93,29.85,3,0,0,0.00
2013-6-12,94.0,80.7,64.0,74.0,70.0,62.0,94,72,49,29.93,29.80,4,1,0,0.00
2013-6-13,90.0,79.5,66.0,74.0,68.2,64.0,95,71,47,29.93,29.83,3,1,0,0.00
2013-6-14,89.0,75.4,61.0,69.0,65.6,59.0,95,74,50,29.99,29.89,2,0,0,0.00
2013-6-15,89.0,75.1,61.0,74.0,66.6,59.0,94,77,49,29.98,29.87,1,0,0,0.00
2013-6-16,89.0,75.9,66.0,77.0,69.7,64.0,95,82,58,29.97,29.85,10,0,0,0.00
2013-6-17,78.0,69.6,63.0,73.0,67.1,62.0,96,92,78,29.92,29.80,7,0,0,0.00
2013-6-18,87.0,72.7,62.0,71.0,66.1,61.0,96,81,51,29.96,29.86,1,0,0,0.00
2013-6-19,91.0,74.7,60.0,73.0,65.3,59.0,96,76,43,29.99,29.90,1,0,0,0.00
2013-6-20,89.0,74.4,62.0,71.0,66.6,60.0,95,79,52,30.04,29.97,3,0,0,0.00
2013-6-22,92.0,86.2,77.0,76.0,74.2,70.0,89,68,54,30.03,29.90,3,0,0,0.00
2013-6-23,92.0,79.3,65.0,75.0,70.7,63.0,95,77,53,29.98,29.87,2,0,0,0.00
2013-6-24,92.0,80.5,68.0,76.0,71.9,66.0,95,77,52,30.02,29.90,2,0,0,0.00
2013-6-25,92.0,80.5,68.0,76.0,71.6,66.0,95,76,52,29.94,29.79,3,0,0,0.00
2013-6-26,96.0,84.2,72.0,79.0,74.2,69.0,93,74,55,29.84,29.74,3,0,0,0.00
2013-6-27,100.0,84.7,69.0,80.0,74.6,67.0,95,75,45,29.88,29.77,2,0,0,0.00
2013-6-28,93.0,82.7,71.0,75.0,69.4,64.0,93,68,41,29.82,29.70,4,1,0,0.00
2013-6-29,87.0,75.5,59.0,65.0,59.3,55.0,94,62,36,29.78,29.68,6,2,0,0.00
2013-6-30,79.0,71.7,61.0,62.0,60.2,57.0,90,68,53,29.87,29.72,3,1,0,0.00
2013-7-1,81.0,70.4,59.0,64.0,60.1,57.0,93,72,48,29.95,29.86,4,1,0,0.00
2013-7-2,82.0,67.6,53.0,62.0,56.6,51.0,94,72,41,30.03,29.93,3,1,0,0.00
2013-7-3,87.0,68.4,52.0,63.0,56.5,50.0,93,70,37,30.08,29.95,1,0,0,0.00
2013-7-4,87.0,71.5,54.0,64.0,58.5,52.0,94,68,36,30.03,29.90,3,0,0,0.00
2013-7-5,90.0,73.7,56.0,69.0,61.2,54.0,93,69,35,30.02,29.89,2,0,0,0.00
2013-7-6,92.0,73.3,59.0,70.0,63.4,57.0,94,75,38,29.99,29.88,2,0,0,0.00
2013-7-7,93.0,78.3,61.0,72.0,66.1,59.0,94,70,42,30.01,29.92,3,0,0,0.00
2013-7-8,93.0,77.4,65.0,77.0,68.4,-99.9,94,78,46,30.05,29.95,2,0,0,0.00
2013-7-9,98.0,82.5,68.0,75.0,70.6,66.0,94,71,43,30.03,29.88,2,0,0,0.00
2013-7-10,98.0,79.6,69.0,74.0,67.8,-99.9,93,72,41,29.97,29.80,2,0,0,0.00
2013-7-11,95.0,80.2,66.0,74.0,67.5,60.0,94,70,35,29.94,29.85,3,0,0,0.00
2013-7-12,91.0,78.1,59.0,63.0,58.0,53.0,94,56,29,30.04,29.91,2,1,0,0.00
2013-7-13,88.0,70.8,53.0,70.0,59.6,51.0,93,71,37,30.04,29.90,2,0,0,0.00
2013-7-14,87.0,72.2,57.0,67.0,60.9,55.0,94,71,40,30.03,29.93,3,0,0,0.00
2013-7-15,88.0,75.8,64.0,72.0,67.3,61.0,93,77,54,30.13,30.02,4,1,0,0.00
2013-7-16,93.0,78.6,65.0,75.0,69.0,63.0,95,75,46,30.21,30.11,5,1,0,0.00
2013-7-17,95.0,80.7,65.0,74.0,68.1,63.0,94,70,41,30.26,30.10,3,0,0,0.00
2013-7-18,97.0,79.1,65.0,73.0,67.9,63.0,94,72,38,30.16,29.96,5,0,0,0.00
2013-7-19,95.0,76.8,67.0,72.0,68.4,65.0,95,79,43,30.01,29.84,4,0,0,0.00
2013-7-20,93.0,73.8,66.0,75.0,67.7,-99.9,96,84,51,29.90,29.76,2,0,0,0.00
2013-7-21,86.0,73.3,67.0,75.0,70.6,66.0,96,91,67,29.89,29.79,1,0,0,0.00
2013-7-22,85.0,74.4,68.0,77.0,71.0,66.0,96,90,65,29.88,29.77,3,0,0,0.00
2013-7-23,95.0,76.1,67.0,80.0,70.4,66.0,96,84,55,29.86,29.70,4,0,0,0.00
2013-7-24,86.0,75.2,67.0,73.0,69.5,66.0,96,83,60,29.95,29.79,3,0,0,0.00
2013-7-25,85.0,73.8,62.0,70.0,65.1,61.0,95,76,51,30.05,29.95,1,0,0,0.00
2013-7-26,71.0,67.4,63.0,68.0,65.5,61.0,95,93,86,30.03,29.93,1,0,0,0.00
2013-7-27,84.0,72.2,63.0,69.0,64.2,61.0,96,79,47,29.98,29.88,3,0,0,0.00
2013-7-28,78.0,67.3,60.0,68.0,62.8,58.0,95,86,64,30.03,29.93,1,0,0,0.00
2013-7-29,85.0,74.1,65.0,73.0,68.1,64.0,95,82,65,30.07,29.97,2,0,0,0.00
2013-7-30,83.0,75.9,70.0,76.0,72.4,68.0,96,90,75,30.01,29.91,1,0,0,0.00
2013-7-31,92.0,78.0,71.0,77.0,73.1,70.0,96,86,61,29.99,29.89,2,0,0,0.00
2013-8-1,88.0,72.9,64.0,72.0,68.1,63.0,96,86,53,30.05,29.93,0,0,0,0.00
2013-8-2,88.0,79.6,64.0,77.0,71.7,63.0,95,78,62,29.97,29.83,2,0,0,0.00
2013-8-3,85.0,75.6,68.0,74.0,71.5,66.0,95,88,65,30.04,29.82,5,0,0,0.00
2013-8-4,79.0,72.6,68.0,74.0,70.3,67.0,96,93,81,30.08,29.99,1,0,0,0.00
2013-8-5,85.0,74.8,68.0,79.0,72.0,66.0,96,92,82,30.01,29.78,5,0,0,0.00
2013-8-6,87.0,75.8,67.0,80.0,72.8,66.0,96,91,77,29.92,29.76,2,0,0,0.00
2013-8-7,87.0,78.1,72.0,79.0,73.4,70.0,96,86,71,29.95,29.76,6,0,0,0.00
2013-8-8,85.0,74.9,70.0,76.0,72.2,69.0,96,92,73,29.93,29.81,2,0,0,0.00
2013-8-9,86.0,76.0,71.0,77.0,72.3,70.0,96,89,66,29.97,29.87,1,0,0,0.00
2013-8-10,79.0,72.9,69.0,74.0,70.4,68.0,96,92,78,30.06,29.95,4,0,0,0.00
2013-8-11,84.0,74.4,68.0,77.0,71.7,67.0,97,91,77,30.06,29.95,1,0,0,0.00
2013-8-12,87.0,74.4,69.0,78.0,71.3,68.0,97,90,71,29.99,29.89,2,0,0,0.00
2013-8-13,82.0,72.4,67.0,74.0,66.8,-99.9,97,87,66,30.00,29.90,2,0,0,0.00
2013-8-14,77.0,68.4,58.0,67.0,58.1,-99.9,96,78,48,30.11,29.99,3,0,0,0.00
2013-8-15,76.0,57.3,53.0,62.0,40.4,-99.9,96,74,49,30.11,29.99,2,0,0,0.00
2013-8-16,76.0,62.3,54.0,63.0,53.6,-99.9,96,80,56,30.08,30.01,2,0,0,0.00
2013-8-17,81.0,66.6,57.0,69.0,59.2,-99.9,95,81,55,30.09,29.99,3,0,0,0.00
2013-8-18,84.0,70.8,60.0,70.0,64.2,59.0,96,81,53,30.10,29.99,1,0,0,0.00
2013-8-19,86.0,67.2,61.0,71.0,53.4,-99.9,96,80,50,30.09,29.95,1,0,0,0.00
2013-8-20,87.0,71.9,61.0,71.0,63.5,-99.9,96,80,51,30.06,29.96,1,0,0,0.00
2013-8-21,91.0,74.0,60.0,76.0,67.0,59.0,96,81,49,30.08,29.98,1,0,0,0.00
2013-8-22,92.0,78.1,63.0,75.0,69.7,62.0,96,78,48,30.07,29.95,1,0,0,0.00
2013-8-23,92.0,77.9,66.0,77.0,71.0,65.0,96,81,56,30.04,29.93,1,0,0,0.00
2013-8-24,91.0,75.8,66.0,74.0,67.6,-99.9,96,80,52,30.11,30.01,1,0,0,0.00
2013-8-25,91.0,76.6,64.0,76.0,69.9,63.0,96,82,55,30.18,30.07,1,0,0,0.00
2013-8-26,92.0,78.2,66.0,75.0,70.8,65.0,96,80,51,30.16,30.03,1,0,0,0.00
2013-8-27,91.0,73.1,63.0,72.0,66.6,62.0,95,83,44,30.08,29.99,0,0,0,0.00
2013-8-28,91.0,85.1,72.0,77.0,73.5,69.0,93,70,54,30.02,29.94,0,0,0,0.00
2013-8-29,95.0,78.8,65.0,78.0,71.1,64.0,96,80,49,30.02,29.91,0,0,0,0.00
2013-8-30,94.0,79.3,67.0,79.0,72.6,66.0,95,82,55,29.95,29.82,3,0,0,0.00
2013-8-31,97.0,79.8,67.0,79.0,70.5,-99.9,96,78,45,29.85,29.72,1,0,0,0.00
2013-9-1,84.0,75.7,68.0,76.0,71.8,67.0,96,88,67,29.83,29.74,1,0,0,0.00
2013-9-2,89.0,75.4,65.0,70.0,67.0,62.0,96,78,47,29.91,29.81,1,0,0,0.00
2013-9-3,88.0,71.3,56.0,68.0,61.6,55.0,95,75,42,30.01,29.91,2,0,0,0.00
2013-9-4,88.0,69.6,55.0,67.0,60.0,54.0,96,76,37,30.11,30.01,1,0,0,0.00
2013-9-5,87.0,70.3,56.0,69.0,61.8,54.0,95,78,44,30.15,30.04,1,0,0,0.00
2013-9-6,88.0,71.0,58.0,70.0,63.2,56.0,96,79,43,30.12,29.97,1,0,0,0.00
2013-9-7,93.0,72.0,59.0,74.0,63.1,-99.9,95,79,42,30.02,29.87,2,0,0,0.00
2013-9-8,95.0,76.4,61.0,77.0,68.6,60.0,95,79,47,29.92,29.82,1,0,0,0.00
2013-9-9,96.0,79.4,66.0,75.0,70.3,65.0,96,77,42,29.95,29.86,2,0,0,0.00
2013-9-10,95.0,76.2,62.0,75.0,67.6,60.0,95,78,39,30.07,29.94,1,0,0,0.00
2013-9-11,95.0,77.8,65.0,74.0,69.3,64.0,95,78,45,30.09,29.98,3,0,0,0.00
2013-9-12,90.0,75.8,65.0,73.0,69.1,64.0,96,81,47,30.03,29.91,6,0,0,0.00
2013-9-13,77.0,68.9,57.0,69.0,59.9,54.0,94,75,53,30.06,29.94,1,0,0,0.00
2013-9-14,78.0,61.7,48.0,57.0,50.2,-99.9,95,72,40,30.09,29.96,2,0,0,0.00
2013-9-15,85.0,64.2,46.0,66.0,55.8,44.0,95,78,43,30.05,29.97,1,0,0,0.00
2013-9-16,76.0,67.9,60.0,68.0,63.0,58.0,94,85,68,30.16,30.01,1,0,0,0.00
2013-9-17,86.0,72.8,63.0,69.0,65.1,61.0,94,78,48,30.14,29.96,2,0,0,0.00
2013-9-18,72.0,66.2,64.0,69.0,64.2,62.0,95,93,90,30.00,29.92,0,0,0,0.00
2013-9-19,91.0,74.3,66.0,74.0,68.9,64.0,95,85,54,29.97,29.85,3,0,0,0.00
2013-9-20,71.0,67.3,60.0,69.0,65.7,59.0,96,94,87,29.91,29.83,2,0,0,0.00
2013-9-21,76.0,60.8,50.0,59.0,51.0,-99.9,96,76,36,29.96,29.85,3,0,0,0.00
2013-9-22,77.0,58.6,45.0,59.0,51.0,44.0,96,79,44,29.98,29.84,2,0,0,0.00
2013-9-23,78.0,60.8,46.0,60.0,53.3,45.0,96,79,46,29.94,29.80,4,1,0,0.00
2013-9-24,84.0,66.0,53.0,65.0,57.5,51.0,96,77,45,29.88,29.72,1,0,0,0.00
2013-9-25,80.0,64.9,52.0,64.0,58.2,50.0,95,81,52,29.83,29.77,2,0,0,0.00
2013-9-26,84.0,65.8,53.0,67.0,59.3,51.0,96,82,51,29.94,29.83,2,0,0,0.00
2013-9-27,86.0,69.2,56.0,70.0,62.2,55.0,96,81,51,30.01,29.89,4,0,0,0.00
2013-9-28,86.0,70.1,59.0,69.0,62.5,-99.9,96,81,57,29.97,29.87,3,0,0,0.00
2013-9-29,71.0,66.8,61.0,67.0,63.7,59.0,96,90,79,30.00,29.90,2,0,0,0.00
2013-9-30,78.0,69.4,64.0,67.0,64.9,62.0,95,86,68,29.91,29.82,3,0,0,0.00
2013-10-1,76.0,69.9,67.0,69.0,66.9,65.0,94,90,80,29.95,29.90,1,0,0,0.00
2013-10-2,83.0,70.9,62.0,71.0,66.7,61.0,96,87,65,30.00,29.89,3,0,0,0.00
2013-10-3,85.0,71.9,62.0,74.0,67.2,61.0,97,86,63,29.94,29.82,3,0,0,0.00
2013-10-4,87.0,74.6,63.0,72.0,67.8,62.0,96,81,50,29.92,29.83,2,0,0,0.00
2013-10-5,73.0,70.3,69.0,72.0,68.6,67.0,96,94,92,29.90,29.85,0,0,0,0.00
2013-10-6,65.0,56.3,48.0,49.0,46.7,45.0,92,72,50,29.97,29.88,5,2,0,0.00
2013-10-7,71.0,55.1,43.0,53.0,47.3,41.0,96,78,43,30.12,29.96,3,0,0,0.00
2013-10-8,72.0,55.0,42.0,54.0,47.3,41.0,96,78,45,30.17,30.04,4,0,0,0.00
2013-10-9,74.0,55.8,41.0,59.0,49.6,40.0,96,82,53,30.12,30.01,1,0,0,0.00
2013-10-10,78.0,59.5,48.0,63.0,53.4,46.0,96,83,50,30.11,29.94,2,0,0,0.00
2013-10-11,79.0,61.9,49.0,64.0,56.5,48.0,96,84,57,29.98,29.85,2,0,0,0.00
2013-10-12,77.0,63.7,57.0,65.0,58.2,-99.9,96,86,63,30.14,29.89,3,0,0,0.00
2013-10-13,74.0,59.5,50.0,56.0,52.4,47.0,95,80,44,30.30,30.14,3,0,0,0.00
2013-10-14,70.0,57.6,46.0,63.0,53.2,44.0,95,86,62,30.25,29.99,0,0,0,0.00
2013-10-15,69.0,63.1,56.0,67.0,61.1,52.0,96,92,80,30.00,29.86,3,0,0,0.00
2013-10-16,64.0,55.4,49.0,53.0,49.2,45.0,95,81,54,30.06,29.94,3,0,0,0.00
2013-10-17,66.0,53.8,44.0,50.0,47.2,42.0,96,81,48,30.02,29.93,3,0,0,0.00
2013-10-18,68.0,51.6,39.0,54.0,46.5,38.0,96,85,52,30.06,29.92,2,0,0,0.00
2013-10-19,60.0,47.7,38.0,48.0,39.3,-99.9,94,77,43,30.09,29.98,3,1,0,0.00
2013-10-20,69.0,48.8,34.0,48.0,39.7,32.0,96,76,38,30.04,29.89,2,0,0,0.00
2013-10-21,61.0,49.8,44.0,52.0,46.8,42.0,95,90,66,30.07,29.94,2,0,0,0.00
2013-10-22,69.0,49.5,37.0,50.0,42.2,36.0,96,79,45,30.08,29.85,4,1,0,0.00
2013-10-23,59.0,46.4,36.0,44.0,38.6,34.0,95,76,45,30.17,29.99,2,0,0,0.00
2013-10-24,55.0,44.0,34.0,40.0,35.4,31.0,95,75,42,30.40,30.09,4,1,0,0.00
2013-10-25,55.0,43.7,28.0,37.0,31.9,26.0,100,67,38,30.53,30.25,2,0,0,0.00
2013-10-26,71.0,50.7,35.0,57.0,43.6,-99.9,93,80,59,30.26,30.03,1,0,0,0.00
2013-10-27,62.0,53.2,43.0,54.0,45.4,40.0,93,76,58,30.09,29.97,2,0,0,0.00
2013-10-28,68.0,51.5,40.0,56.0,46.4,-99.9,98,87,63,30.18,30.02,1,0,0,0.00
2013-10-29,68.0,58.3,46.0,65.0,56.6,44.0,96,94,89,30.18,29.98,3,0,0,0.00
2013-10-30,72.0,67.2,62.0,65.0,62.9,60.0,96,87,75,30.03,29.82,1,0,0,0.00
2013-10-31,76.0,64.6,50.0,66.0,59.8,48.0,96,86,43,29.82,29.39,8,1,0,0.00
2013-11-1,70.0,54.9,40.0,48.0,43.4,38.0,96,70,36,29.94,29.71,6,1,0,0.00
2013-11-2,58.0,46.7,36.0,44.0,37.1,-99.9,94,74,49,30.22,29.93,6,1,0,0.00
2013-11-3,61.0,44.9,31.0,46.0,36.2,29.0,96,75,43,30.28,30.08,4,0,0,0.00
2013-11-4,57.0,52.6,46.0,50.0,45.1,40.0,94,76,63,30.20,30.08,2,0,0,0.00
2013-11-5,61.0,55.8,52.0,58.0,53.5,50.0,95,92,84,30.18,29.99,3,0,0,0.00
2013-11-6,61.0,51.8,43.0,60.0,47.9,36.0,96,86,73,30.31,29.88,6,2,0,0.00
2013-11-7,61.0,43.3,30.0,42.0,35.7,28.0,95,78,41,30.45,30.29,4,0,0,0.00
2013-11-8,64.0,44.8,31.0,42.0,35.5,29.0,96,74,37,30.36,30.11,2,0,0,0.00
2013-11-9,63.0,49.6,39.0,49.0,41.0,-99.9,92,76,51,30.23,30.11,1,0,0,0.00
2013-11-10,66.0,50.7,38.0,45.0,40.7,35.0,95,73,36,30.37,30.24,3,0,0,0.00
2013-11-11,70.0,51.9,34.0,53.0,43.5,32.0,94,76,47,30.32,30.12,4,0,0,0.00
2013-11-12,48.0,35.8,23.0,41.0,22.3,14.0,82,60,33,30.71,30.34,6,2,0,0.00
2013-11-13,49.0,29.4,17.0,23.0,18.4,14.0,91,69,29,30.72,30.38,1,0,0,0.00
2013-11-14,57.0,40.5,23.0,34.0,24.7,20.0,92,58,28,30.37,30.07,3,0,0,0.00
2013-11-15,55.0,49.3,42.0,51.0,42.2,32.0,85,77,57,30.06,29.90,3,1,0,0.00
2013-11-16,70.0,62.8,55.0,65.0,55.2,-99.9,93,79,71,29.91,29.63,4,1,0,0.00
2013-11-17,80.0,72.8,59.0,66.0,54.7,33.0,94,58,25,29.88,29.52,11,3,0,0.00
2013-11-18,64.0,48.8,35.0,41.0,33.5,26.0,91,61,25,30.27,30.12,4,1,0,0.00
2013-11-19,57.0,42.7,31.0,36.0,29.9,27.0,92,64,33,30.31,30.13,3,1,0,0.00
2013-11-20,63.0,46.8,35.0,38.0,30.9,27.0,82,57,26,30.15,29.93,4,1,0,0.00
2013-11-21,55.0,51.8,47.0,53.0,47.6,35.0,95,86,55,30.17,30.01,1,0,0,0.00
2013-11-22,54.0,42.0,35.0,53.0,37.8,30.0,95,85,79,30.49,30.16,6,2,0,0.00
2013-11-23,41.0,35.1,26.0,32.0,21.3,-99.9,90,61,36,30.67,30.49,4,1,0,0.00
2013-11-24,30.0,25.4,19.0,14.0,11.8,10.0,73,56,47,30.72,30.42,3,1,0,0.00
2013-11-25,34.0,31.4,30.0,31.0,23.6,13.0,91,74,49,30.44,30.18,3,1,0,0.00
2013-11-26,47.0,37.2,32.0,33.0,28.2,19.0,93,72,51,30.26,30.04,7,2,0,0.00
2013-11-27,36.0,27.3,19.0,19.0,14.4,10.0,84,59,40,30.42,30.27,7,2,0,0.00
2013-12-14,38.0,33.6,31.0,34.0,28.5,-99.9,95,85,78,30.21,29.83,6,2,0,0.00
2013-12-15,47.0,32.3,25.0,34.0,25.5,21.0,92,76,56,30.26,30.12,4,1,0,0.00
2013-12-16,62.0,37.1,26.0,41.0,30.2,24.0,95,80,38,30.12,30.01,0,0,0,0.00
2013-12-17,57.0,36.6,26.0,40.0,29.9,24.0,95,80,40,30.31,30.11,5,1,0,0.00
2013-12-18,60.0,38.3,23.0,41.0,29.8,21.0,95,76,43,30.31,29.98,2,0,0,0.00
2013-12-19,61.0,56.8,45.0,54.0,49.0,40.0,91,75,68,29.97,29.75,2,0,0,0.00
2013-12-20,70.0,56.6,40.0,61.0,51.2,37.0,93,82,65,29.83,29.72,3,0,0,0.00
2013-12-21,42.0,39.0,38.0,41.0,35.9,-99.9,95,93,92,29.78,29.47,4,0,0,0.00
2013-12-22,41.0,35.1,31.0,40.0,30.1,22.0,95,82,72,30.32,29.66,6,3,0,0.00
2013-12-23,35.0,28.8,23.0,25.0,20.4,17.0,87,71,54,30.58,30.32,5,2,0,0.00
2013-12-24,35.0,24.7,17.0,20.0,16.0,11.0,82,70,51,30.62,30.37,4,2,0,0.00
2013-12-25,48.0,32.1,23.0,34.0,25.6,17.0,92,78,58,30.39,30.27,5,0,0,0.00
2013-12-26,51.0,33.0,22.0,36.0,25.9,20.0,95,78,38,30.44,30.31,2,0,0,0.00
2013-12-27,59.0,40.0,23.0,36.0,29.3,21.0,94,70,35,30.44,30.30,1,0,0,0.00
2013-12-28,50.0,34.0,23.0,38.0,27.4,-99.9,94,81,59,30.33,29.95,1,0,0,0.00
2013-12-29,45.0,32.8,25.0,38.0,26.8,17.0,92,79,69,30.27,29.93,6,2,0,0.00
2013-12-30,37.0,25.2,18.0,21.0,15.8,12.0,86,68,49,30.34,30.23,1,0,0,0.00
2013-12-31,55.0,31.8,16.0,30.0,21.5,13.0,92,70,30,30.42,30.22,2,0,0,0.00
2014-1-1,54.0,39.1,24.0,35.0,28.8,22.0,93,69,40,30.21,29.91,10,1,0,0.00
2014-1-2,35.0,23.5,16.0,26.0,13.3,6.0,76,65,51,30.51,30.02,8,4,0,0.00